TimeMST,TemperatureF,Dew PointF,Humidity,Sea Level PressureIn,VisibilityMPH,Wind Direction,Wind SpeedMPH,Gust SpeedMPH,PrecipitationIn,Events,Conditions,WindDirDegrees,DateUTC
12:52 AM,30.0,28.0,92,30.27,10.0,South,5.8,-,N/A,,Clear,190,2012-12-04 07:52:00
1:52 AM,32.0,28.9,88,30.27,10.0,South,5.8,-,N/A,,Clear,170,2012-12-04 08:52:00
2:08 AM,28.4,26.6,93,30.28,8.0,South,6.9,-,N/A,,Scattered Clouds,170,2012-12-04 09:08:00
2:17 AM,30.2,28.4,93,30.29,8.0,South,5.8,-,N/A,,Mostly Cloudy,190,2012-12-04 09:17:00
2:39 AM,30.2,28.4,93,30.29,10.0,SW,5.8,-,N/A,,Scattered Clouds,220,2012-12-04 09:39:00
2:52 AM,32.0,28.9,88,30.28,10.0,SW,6.9,-,N/A,,Clear,220,2012-12-04 09:52:00
3:52 AM,33.1,30.9,92,30.28,10.0,SW,8.1,-,N/A,,Clear,220,2012-12-04 10:52:00
4:52 AM,33.1,30.9,92,30.30,10.0,SSW,5.8,-,N/A,,Overcast,210,2012-12-04 11:52:00
5:52 AM,34.0,30.9,89,30.32,10.0,South,8.1,-,N/A,,Overcast,170,2012-12-04 12:52:00
6:52 AM,37.0,34.0,89,30.31,10.0,South,9.2,-,N/A,,Overcast,190,2012-12-04 13:52:00
7:52 AM,39.9,35.1,83,30.32,10.0,SW,9.2,-,N/A,,Partly Cloudy,220,2012-12-04 14:52:00
8:52 AM,39.9,35.1,83,30.34,10.0,South,10.4,-,N/A,,Clear,180,2012-12-04 15:52:00
9:52 AM,43.0,36.0,76,30.35,10.0,South,15.0,-,N/A,,Overcast,190,2012-12-04 16:52:00
10:52 AM,46.9,36.0,66,30.34,10.0,SSW,17.3,-,N/A,,Partly Cloudy,200,2012-12-04 17:52:00
11:52 AM,55.0,37.0,51,30.30,10.0,SSW,18.4,-,N/A,,Clear,210,2012-12-04 18:52:00
12:52 PM,57.0,37.0,47,30.28,10.0,SSW,21.9,27.6,N/A,,Partly Cloudy,210,2012-12-04 19:52:00
1:52 PM,57.9,35.1,42,30.25,10.0,SSW,18.4,23.0,N/A,,Scattered Clouds,210,2012-12-04 20:52:00
3:52 PM,57.9,32.0,37,30.22,10.0,SW,12.7,-,N/A,,Clear,220,2012-12-04 22:52:00
4:52 PM,52.0,33.1,49,30.24,10.0,South,6.9,-,N/A,,Clear,190,2012-12-04 23:52:00
5:52 PM,48.0,34.0,58,30.23,10.0,South,3.5,-,N/A,,Clear,180,2012-12-05 00:52:00
6:52 PM,50.0,33.1,52,30.20,10.0,SW,13.8,-,N/A,,Clear,230,2012-12-05 01:52:00
7:52 PM,46.9,33.1,59,30.21,10.0,SW,15.0,-,N/A,,Clear,220,2012-12-05 02:52:00
8:52 PM,45.0,32.0,60,30.22,10.0,SW,12.7,-,N/A,,Clear,220,2012-12-05 03:52:00
9:52 PM,44.1,30.9,60,30.22,10.0,SSW,15.0,-,N/A,,Clear,210,2012-12-05 04:52:00
10:52 PM,44.1,30.0,58,30.21,10.0,SW,12.7,-,N/A,,Clear,220,2012-12-05 05:52:00
11:52 PM,44.1,30.9,60,30.17,10.0,SW,13.8,-,N/A,,Clear,220,2012-12-05 06:52:00